Regional Weather Roundup
Issued by NWS

Home | Current Version | Previous Version | Graphics & Text | Print | Product List | Glossary On
Versions: 1 2 3 4 5 6 7 8 9 10 11 12 13 14 15 16 17 18 19 20 21 22 23 24 25 26 27 28 29 30 31 32 33 34 35 36 37 38 39 40 41 42 43 44 45 46 47 48 49 50
000
ASUS43 KIND 260109
RWRIN

WEATHER ROUNDUP FOR INDIANA
NATIONAL WEATHER SERVICE INDIANAPOLIS IN
900 PM EDT TUE JUL 25 2017

NOTE: "FAIR" INDICATES FEW OR NO CLOUDS BELOW 12,000 FEET WITH NO
SIGNIFICANT WEATHER AND/OR OBSTRUCTIONS TO VISIBILITY.

* - STATION DOES NOT REPORT WEATHER SUCH AS PRECIPITATION OR FOG.

+ - STATION NOT QUALITY CONTROLLED BY THE NATIONAL WEATHER SERVICE.
    USE DATA WITH CAUTION...ESPECIALLY DEWPOINT AND RELATIVE
    HUMIDITY OBSERVATIONS.

INZ001>003-010>013-019-020-260200-
NORTHWEST INDIANA

CITY           SKY/WX    TMP DP  RH WIND       PRES   REMARKS
GARY /AIRPORT/ MOCLDY    75  54  46 SE8       30.13F
KNOX *+        PTCLDY    68  63  83 SE5       30.14F
LA PORTE +     PTCLDY    67  61  79 SE6       30.15F
MICHIGAN CITY+ PTCLDY    70  55  60 SE3       30.14F
MONTICELLO +   CLEAR     73  59  63 CALM      30.15S
RENSSELAER +   CLEAR     72  54  53 SE7       30.14F
VALPARAISO     PTCLDY    73  58  59 SE7       30.14F

$$

LMZ046-743>745-260200-
SOUTHERN LAKE MICHIGAN

STATION/POSITION TIME  TEMP    WIND        PRES    WAVE
                       AIR SEA DIR/SP/G            HT
                 (UTC) (F)     (DEG/KT/KT) (MB)    (FT)
BURNS HARBOR     0040   76     150/  6/ 15 1020.7F
MICHIGAN CITY    0040   74     120/  9/ 12   N/A
5NW MICH CITY    0100   75 75  150/ 10/ 14   N/A     1

$$

INZ004-005-014>016-021>024-260200-
NORTH CENTRAL INDIANA

CITY           SKY/WX    TMP DP  RH WIND       PRES   REMARKS
ELKHART        CLEAR     72  55  56 SE6       30.16F
GOSHEN         CLOUDY    69  59  70 E3        30.17S
LOGANSPORT +   PTCLDY    68  61  77 E6        30.16F
PERU/GRISSOM   CLOUDY    71  61  68 E6        30.15F
ROCHESTER +    CLEAR     72  59  64 E3        30.17S
SOUTH BEND     CLOUDY    74  56  53 S9        30.15F
WARSAW +       CLEAR     70  59  68 CALM      30.17S

$$

INZ006>009-017-018-025>027-260200-
NORTHEAST INDIANA

CITY           SKY/WX    TMP DP  RH WIND       PRES   REMARKS
AUBURN +       CLEAR     70  57  64 E3        30.20R
FORT WAYNE     PTCLDY    71  59  65 E5        30.18F
HUNTINGTON +   CLEAR     70  61  73 CALM      30.17F
KENDALLVILLE + CLEAR     69  57  64 E5        30.20R

$$

INZ028-029-035-036-043>045-051>053-260200-
WEST CENTRAL INDIANA

CITY           SKY/WX    TMP DP  RH WIND       PRES   REMARKS
GREENCASTLE +  CLEAR     70  61  73 E5        30.15F
LAFAYETTE      CLEAR     70  60  70 E7        30.14S
TERRE HAUTE    CLEAR     74  64  71 E6        30.12F

$$

INZ030>032-037>040-046>048-054>057-064-065-260200-
CENTRAL INDIANA

CITY           SKY/WX    TMP DP  RH WIND       PRES   REMARKS
CP ATTERBURY + CLEAR     70  63  78 CALM      30.16F
COLUMBUS       CLEAR     73  61  64 CALM      30.15F
FRANKFORT +    MOCLDY    70  64  82 E6        30.17F
INDIANAPOLIS   PTCLDY    75  59  57 E9        30.15S
-EAGLE CREEK   CLEAR     76  57  51 SE7       30.14F
KOKOMO +       CLOUDY    70  64  81 E6        30.18S
MARION +       CLEAR     70  61  73 SE5       30.18S
MT COMFORT *+  CLEAR     72  64  78 E6        30.17S
SHELBYVILLE    CLEAR     71  63  75 E6        30.15F
ZIONSVILLE +   CLEAR     71  60  68 E5        30.17S

$$

INZ033-034-041-042-049-050-058-059-260200-
EAST CENTRAL INDIANA

CITY           SKY/WX    TMP DP  RH WIND       PRES   REMARKS
MUNCIE         CLEAR     71  62  73 E5        30.18S
RICHMOND +     CLEAR     64  63  94 E6        30.19F

$$

INZ060-061-067>069-081>083-085>088-260200-
SOUTHWEST INDIANA

CITY           SKY/WX    TMP DP  RH WIND       PRES   REMARKS
EVANSVILLE     MOCLDY    82  69  64 NE6       30.10R
HUNTINGBURG *+ CLEAR     78  69  73 NE7       30.11S

$$

INZ062-063-066-070>080-084-089>092-260200-
SOUTH CENTRAL AND SOUTHEAST INDIANA

CITY           SKY/WX    TMP DP  RH WIND       PRES   REMARKS
BEDFORD +      CLEAR     75  63  64 NE5       30.13
BLOOMINGTON    CLEAR     76  60  57 E6        30.14F
MADISON *+     CLEAR     73  61  64 CALM      30.17S
NORTH VERNON + CLEAR     72  64  78 CALM      30.16S
SEYMOUR +      CLEAR     75  64  69 NE6       30.14S

$$




USA.gov is the U.S. government's official web portal to all federal, state and local government web resources and services.